Location: Lafig�re
(44.4503°N, 4.0357°E)
Time: 02:04:36
(UTC+00:00)

Transit 4A - Pass Details

Date: 22 January 2021
Orbit: 866 x 979 km, 66.8° (Epoch: 24 February)

Event Time Altitude Azimuth Distance (km) Brightness Sun altitude
Rises 17:21:47 0° 155° (SSE) 3,656 11.0 -7.8°
Reaches altitude 10° 17:25:36 10° 133° (SE) 2,722 10.1 -8.4°
Maximum altitude 17:28:51 15° 101° (ESE) 2,406 9.6 -8.9°
Enters shadow 17:31:31 11° 75° (ENE) 2,627 9.6 -9.4°
Drops below altitude 10° 17:32:07 10° 70° (ENE) 2,730 - -9.5°
Sets 17:35:56 0° 48° (NE) 3,674 - -10.1°
